Flag for Poland Weather past 2 weeks in Grudziądz, Poland

Now
39 °F

Sprinkles. Overcast.


Feels Like: 35 °F
Forecast: 35 / 43 °F
Wind: 5 mph from West

Location: Torun

Current Time: Apr 1, 2015 at 8:44:43 PM

Latest Report: Apr 1, 2015 at 8:00 PM


Visibility: 11 mi

Pressure: 29.56 "Hg

Humidity: 82%

Dew point: 34 °F

Location of GrudziądzLocation

Historic Weather in Grudziądz — Graph

°F

Grudziądz temperature yesterday

Maximum temperature yesterday: 44 °F (at 6:00 PM)
Minimum temperature yesterday: 35 °F (at 2:00 PM)
Average temperature yesterday: 40 °F

Past Weeks' High & Low Weather Summary

 TemperatureHumidityPressure
High61 °F (Mar 25, 2:00 PM)100% (Mar 28, 3:00 AM)30.61 "Hg (Mar 28, 3:00 AM)
Low21 °F (Mar 20, 6:00 AM)21% (Mar 18, 3:00 PM)29.00 "Hg (Mar 30, 6:00 AM)
Average41 °F68%29.90 "Hg
* Reported Mar 17 6:00 PM — Apr 1 7:00 PM, Grudziądz, Weather by CustomWeather, © 2015

Note: Actual official high and low records may vary slightly from our data, if they occured in-between our weather recording intervals... More about our weather records

Advertising

Grudziądz weather history for previous 24 hours

 ConditionsComfort  
Time TempWeatherWind HumidityBarometerVisibility
7:00 PM
Wed, Apr 1
38 °FPartly sunny.3 mph85%29.54 "Hg19 mi
6:00 PM38 °FSprinkles. Partly sunny.5 mph88%29.54 "Hg9 mi
5:00 PM45 °FScattered clouds.6 mph59%29.47 "Hg22 mi
4:00 PM45 °FPartly sunny.6 mph59%29.47 "Hg22 mi
3:00 PM41 °FPartly sunny.5 mph85%29.47 "Hg19 mi
2:00 PM45 °FOvercast.5 mph72%29.47 "Hg25 mi
1:00 PM43 °FOvercast.7 mph72%29.44 "Hg19 mi
12:00 PM39 °FSprinkles. Overcast.6 mph86%29.44 "Hg10 mi
11:00 AM38 °FSprinkles. Overcast.5 mph89%29.41 "Hg4 mi
10:00 AM39 °FOvercast.6 mph84%29.38 "Hg22 mi
9:00 AM37 °FOvercast.5 mph91%29.35 "Hg15 mi
8:00 AM36 °FSprinkles. Low clouds.3 mph92%29.35 "Hg6 mi
7:00 AM36 °FLight rain. Low clouds.5 mph93%29.29 "Hg7 mi
6:00 AM36 °FOvercast.5 mph92%29.26 "Hg7 mi
5:00 AM36 °FOvercast.5 mph91%29.23 "Hg7 mi
4:00 AM36 °FSprinkles. Overcast.6 mph91%29.18 "Hg11 mi
3:00 AM37 °FSprinkles. Overcast.7 mph90%29.15 "Hg11 mi
2:00 AM37 °FSprinkles. Overcast.7 mph91%29.12 "Hg5 mi
1:00 AM38 °FSprinkles. Overcast.6 mph86%29.06 "Hg9 mi
12:00 AM40 °FOvercast.6 mph84%29.09 "Hg31 mi
10:00 PM
Tue, Mar 31
42 °FSprinkles. Overcast.5 mph90%29.06 "Hg9 mi
9:00 PM43 °FSprinkles. Overcast.5 mph90%29.06 "Hg9 mi
8:00 PM43 °FSprinkles. Overcast.5 mph91%29.06 "Hg28 mi
Weather by CustomWeather, © 2015

See weather overviewHow to use our weather pages